Flag for India Weather past 2 weeks in Navi Mumbai, Maharashtra, India

Now
88 °F

Scattered clouds.


Feels Like: 98 °F
Forecast: 78 / 85 °F
Wind: 15 mph from West

Location: Bombay / Santacruz

Current Time: Jun 30, 2015 at 4:13:56 PM

Latest Report: Jun 30, 2015 at 3:10 PM


Visibility: 2 mi

Pressure: 29.74 "Hg

Humidity: 66%

Dew point: 75 °F

Location of Navi MumbaiLocation

Historic Weather in Navi Mumbai — Graph

°F

Navi Mumbai temperature yesterday

Maximum temperature yesterday: 90 °F (at 1:10 PM)
Minimum temperature yesterday: 82 °F (at 12:40 AM)
Average temperature yesterday: 85 °F

Past Weeks' High & Low Weather Summary

 TemperatureHumidityPressure
High90 °F (Jun 28, 2:40 PM)100% (Jun 15, 4:10 PM)29.80 "Hg (Jun 15, 4:10 PM)
Low77 °F (Jun 16, 4:10 AM)66% (Jun 16, 2:10 PM)29.42 "Hg (Jun 21, 5:10 PM)
Average82 °F87%29.61 "Hg
* Reported Jun 15 3:10 PM — Jun 30 2:40 PM, Navi Mumbai, Weather by CustomWeather, © 2015

Note: Actual official high and low records may vary slightly from our data, if they occured in-between our weather recording intervals... More about our weather records

Advertising

Navi Mumbai weather history for previous 24 hours

 ConditionsComfort  
Time TempWeatherWind HumidityBarometerVisibility
2:40 PM
Tue, Jun 30
88 °FScattered clouds.14 mph70%29.74 "Hg2 mi
2:10 PM88 °FScattered clouds.14 mph70%29.74 "Hg2 mi
1:40 PM88 °FScattered clouds.13 mph70%29.74 "Hg2 mi
1:10 PM88 °FBroken clouds.14 mph70%29.77 "Hg2 mi
12:10 PM86 °FBroken clouds.7 mph79%29.77 "Hg1 mi
11:40 AM84 °FBroken clouds.6 mph89%29.80 "Hg1 mi
11:10 AM84 °FMore clouds than sun.No wind84%29.80 "Hg1 mi
10:40 AM84 °FMore clouds than sun.No wind84%29.80 "Hg1 mi
10:10 AM82 °FMore clouds than sun.5 mph84%29.80 "Hg1 mi
9:40 AM81 °FScattered showers. More clouds than sun.5 mph89%29.80 "Hg1 mi
9:10 AM81 °FScattered showers. More clouds than sun.3 mph89%29.80 "Hg1 mi
8:40 AM81 °FLight rain. More clouds than sun.5 mph94%29.77 "Hg1 mi
8:10 AM81 °FScattered showers. Broken clouds.5 mph94%29.77 "Hg1 mi
6:10 AM81 °FScattered showers. Partly cloudy.5 mph89%29.74 "Hg1 mi
5:40 AM81 °FPartly cloudy.5 mph89%29.74 "Hg1 mi
5:10 AM81 °FPartly cloudy.No wind89%29.74 "Hg1 mi
4:40 AM81 °FPartly cloudy.No wind89%29.74 "Hg1 mi
4:10 AM81 °FPartly cloudy.6 mph89%29.74 "Hg1 mi
3:40 AM81 °FPartly cloudy.No wind89%29.74 "Hg1 mi
2:10 AM82 °FPartly cloudy.3 mph89%29.74 "Hg2 mi
1:40 AM82 °FPartly cloudy.5 mph89%29.77 "Hg2 mi
1:10 AM84 °FPartly cloudy.5 mph79%29.77 "Hg2 mi
12:40 AM84 °FPartly cloudy.5 mph79%29.77 "Hg2 mi
12:10 AM82 °FPartly cloudy.No wind84%29.77 "Hg2 mi
11:10 PM
Mon, Jun 29
82 °FPartly cloudy.7 mph79%29.80 "Hg2 mi
10:40 PM84 °FPartly cloudy.6 mph79%29.80 "Hg2 mi
10:10 PM84 °FPartly cloudy.10 mph79%29.80 "Hg2 mi
9:10 PM84 °FPartly cloudy.9 mph79%29.77 "Hg2 mi
8:40 PM84 °FPartly cloudy.9 mph79%29.77 "Hg2 mi
8:10 PM84 °FPartly cloudy.10 mph79%29.77 "Hg2 mi
7:40 PM84 °FBroken clouds.12 mph79%29.74 "Hg2 mi
7:10 PM84 °FBroken clouds.12 mph79%29.74 "Hg2 mi
6:10 PM84 °FScattered showers. Broken clouds.9 mph84%29.74 "Hg2 mi
5:40 PM86 °FBroken clouds.14 mph75%29.74 "Hg2 mi
5:10 PM86 °FBroken clouds.15 mph75%29.74 "Hg2 mi
4:40 PM86 °FBroken clouds.14 mph75%29.74 "Hg2 mi
4:10 PM88 °FBroken clouds.13 mph70%29.74 "Hg2 mi
Weather by CustomWeather, © 2015

See weather overviewHow to use our weather pages